Location: Peebles
(55.6412°N, 3.1714°W)
Time: 09:44:03
(UTC+01:00)

Ariane Rocket - Pass Details

Date: 26 September 2021
Orbit: 760 x 769 km, 98.7° (Epoch: 20 October)

Event Time Altitude Azimuth Distance (km) Brightness Sun altitude
Exits shadow 19:42:21 - 107° (ESE) 2,502 5.0 -6.7°
Reaches altitude 10° 19:42:57 10° 103° (ESE) 2,309 4.8 -6.8°
Maximum altitude 19:46:51 23° 53° (NE) 1,603 4.3 -7.3°
Drops below altitude 10° 19:50:47 10° 2° (N) 2,323 5.6 -7.9°
Sets 19:53:30 0° 349° (N) 3,255 6.5 -8.3°
